[[{"header":{"parameterUnit":"m.s-1","parameterCategory":1,"la1":30.2991,"la2":30.254,"lo1":-89.0895,"lo2":-89.0444,"dy":0.0017,"dx":0.0017,"nx":28,"ny":28,"refTime":"2024-08-28T09:00:00:Z","depth":0,"parameterNumber":2,"parameterNumberName":"U-component_of_WINDS"},"data":[0,0,0,0,0,0,0,0,0,0,0,0,0,0,0,0,0,0,0,0,0,0,0,0,0,0,0,0,0,0,0,0,0,0,0,0,0,0,0,0,0,0,0,0,0,0,0,0,0,0,0,0,0,0,0,0,0,0,-0.9956,-0.9956,0,-0.9962,-0.9962,-0.9962,-0.9956,-0.9956,-0.9955,-0.9955,-0.996,-0.996,-0.996,0,0,0,0,0,0,0,0,0,0,0,0,0,-0.994,-0.994,-0.9956,-0.9956,-0.9956,-0.9962,-0.9962,-0.9962,-0.9956,-0.9956,-0.9955,-0.9955,-0.996,-0.996,-0.996,0,0,0,0,0,0,0,0,0,0,0,0,0,-0.9946,-0.994,-0.9956,-0.9954,-0.9954,-0.9962,-0.9962,-0.9962,-0.9956,-0.9956,-0.9955,-0.9955,-0.9959,-0.996,-0.9961,-0.9971,0,0,-0.9962,-0.9962,0,0,0,0,0,0,0,0,-0.9946,-0.9947,-0.9954,-0.9954,-0.9954,-0.9958,-0.9958,-0.9965,-0.9956,-0.9955,-0.9955,-0.9955,-0.9959,-0.996,-0.9962,-0.9971,-0.9971,-0.9962,-0.9962,-0.9963,-0.9963,0,0,0,0,0,0,0,-0.9946,-0.9947,-0.9959,-0.9954,-0.9954,-0.9953,-0.9953,-0.9959,-0.9959,-0.9955,-0.9955,-0.9956,-0.9959,-0.9961,-0.9962,-0.9971,-0.9962,-0.9963,-0.9963,-0.9963,-0.9991,-0.9991,0,0,0,0,0,0,-0.9945,-0.9946,-0.9958,-0.9959,-0.9949,-0.9953,-0.9954,-0.9957,-0.9959,-0.9959,-0.9956,-0.9955,-0.996,-0.9961,-0.9962,-0.9975,-0.9963,-0.9963,-0.9963,-0.999,-0.9991,-0.9991,0,0,0,0,0,0,-0.9945,-0.9947,-0.9958,-0.9952,-0.9954,-0.9954,-0.9957,-0.9957,-0.9959,-0.996,-0.9959,-0.9958,-0.996,-0.9961,-0.9969,-0.9975,-0.9963,-0.9964,-0.999,-0.999,-0.9991,-1.0,0,0,0,0,0,0,-0.9945,-0.9946,-0.995,-0.9953,-0.9954,-0.9965,-0.9958,-0.9958,-0.996,-0.996,-0.9961,-0.9961,-0.996,-0.9968,-0.997,-0.9975,-0.9964,-0.9989,-0.999,-0.9991,-0.9999,-1.0001,-1.0002,0,0,0,0,0,-0.9944,-0.9952,-0.9951,-0.9952,-0.9959,-0.9966,-0.9966,-0.9965,-0.9961,-0.9965,-0.9965,-0.9961,-0.9974,-0.9969,-0.997,-0.9976,-0.9989,-0.999,-0.9991,-0.9999,-1.0001,-1.0002,0,0,0,0,0,0,-0.995,-0.9952,-0.9951,-0.996,-0.9963,-0.9965,-0.9969,-0.9967,-0.9971,-0.997,-0.9968,-0.9968,-0.9977,-0.9977,-0.9972,-0.9987,-0.9981,-0.9982,-0.9986,-0.9988,-0.999,-0.9989,-0.9965,0,0,0,0,0,-0.9952,-0.9958,-0.996,-0.9967,-0.9969,-0.9969,-0.9972,-0.9971,-0.9973,-0.9974,-0.9975,-0.9978,-0.9982,-0.9985,-0.999,-1.0,-1.0,-1.0005,-1.0006,-1.0007,-1.0008,-1.0015,-1.0017,-0.9994,-0.9994,-0.9994,0,0,-0.9957,-0.9959,-0.9963,-0.9969,-0.9971,-0.9976,-0.997,-0.9976,-0.998,-0.9975,-0.9983,-0.9984,-0.9986,-0.9996,-1.0,-0.9997,-1.0015,-1.0009,-1.001,-1.001,-1.0016,-1.0018,-1.002,-0.9995,-0.9995,-0.9995,0,0,-0.9969,-0.9971,-0.9978,-0.9981,-0.9984,-0.9985,-0.9986,-0.9989,-0.999,-0.9997,-0.9994,-0.9999,-1.0007,-1.0009,-1.0011,-1.0026,-1.0023,-1.0027,-1.0035,-1.0041,-1.0043,-1.0045,-1.005,-1.0052,-1.0028,-1.0028,-1.0028,0,-0.9975,-0.9983,-0.9982,-0.9989,-0.9992,-0.9988,-0.9996,-0.9998,-1.0003,-1.0005,-1.0001,-1.0012,-1.0014,-1.0024,-1.0027,-1.0029,-1.0031,-1.0027,-1.0043,-1.0044,-1.0046,-1.0051,-1.0053,-1.0029,-1.0029,-1.0029,-1.0029,0,-0.999,-0.9996,-1.0002,-1.0007,-1.001,-1.0017,-1.0018,-1.0021,-1.002,-1.0021,-1.0029,-1.0031,-1.0036,-1.0039,-1.0037,-1.0049,-1.0047,-1.0043,-1.0037,-1.0049,-1.0053,-1.0055,-1.003,-1.003,-1.0029,-1.0029,0,0,-1.0005,-1.0011,-1.0013,-1.0015,-1.002,-1.0024,-1.0031,-1.0037,-1.004,-1.0044,-1.005,-1.0057,-1.0054,-1.0057,-1.0056,-1.0061,-1.0073,-1.0057,-1.0057,-1.006,-1.0087,-1.0089,-1.0092,-1.0071,-1.0072,-1.0072,-1.0087,0,-1.0017,-1.003,-1.003,-1.0041,-1.0047,-1.0045,-1.0051,-1.0054,-1.0056,-1.0061,-1.0062,-1.0067,-1.0063,-1.0064,-1.0069,-1.0071,-1.0078,-1.0069,-1.0077,-1.0077,-1.0076,-1.0094,-1.0097,-1.0111,-1.0088,-1.0089,-1.0089,0,-1.0033,-1.0038,-1.005,-1.0055,-1.0057,-1.0063,-1.0068,-1.0073,-1.0077,-1.0078,-1.0081,-1.008,-1.0087,-1.0081,-1.0092,-1.0086,-1.0089,-1.009,-1.009,-1.0091,-1.0084,-1.0095,-1.0115,-1.0117,-1.0092,-1.0092,-1.0091,0,-1.0043,-1.0053,-1.0062,-1.0064,-1.0069,-1.0073,-1.0076,-1.0079,-1.0083,-1.0088,-1.009,-1.0096,-1.0099,-1.0103,-1.0103,-1.0099,-1.0114,-1.0108,-1.0115,-1.0115,-1.0118,-1.0117,-1.0138,-1.012,-1.012,-1.012,-1.012,0,-1.0057,-1.0065,-1.0067,-1.0072,-1.0081,-1.0081,-1.009,-1.0092,-1.0095,-1.0101,-1.0099,-1.0105,-1.0104,-1.011,-1.011,-1.0119,-1.0121,-1.0121,-1.0121,-1.0121,-1.0121,-1.0123,-1.0122,-1.012,-1.012,-1.012,-1.012,0,-1.007,-1.0071,-1.0081,-1.0085,-1.0087,-1.0093,-1.0097,-1.0102,-1.0103,-1.0111,-1.0113,-1.0115,-1.0121,-1.0122,-1.013,-1.013,-1.0141,-1.014,-1.014,-1.0139,-1.0147,-1.0146,-1.0169,-1.0172,-1.0152,-1.0152,-1.0152,0,-1.0078,-1.0084,-1.009,-1.0094,-1.0097,-1.0103,-1.0107,-1.0108,-1.0112,-1.0117,-1.0122,-1.0129,-1.0134,-1.0145,-1.0147,-1.0153,-1.0152,-1.016,-1.0153,-1.0154,-1.0153,-1.0152,-1.0153,-1.0161,-1.0162,-1.0162,-1.0162,0,-1.0094,-1.0094,-1.01,-1.0107,-1.0112,-1.0117,-1.0122,-1.0125,-1.0126,-1.0131,-1.0138,-1.0143,-1.0151,-1.0158,-1.0164,-1.0166,-1.0164,-1.0164,-1.0166,-1.0166,-1.0166,-1.0167,-1.0143,-1.0163,-1.0163,-1.0163,-1.0163,-1.0163,-1.0105,-1.0111,-1.0115,-1.0122,-1.0126,-1.0131,-1.0136,-1.0139,-1.0145,-1.0152,-1.0152,-1.016,-1.0165,-1.0173,-1.0176,-1.0182,-1.018,-1.0182,-1.0183,-1.0184,-1.0185,-1.0165,-1.0183,-1.0183,-1.0183,-1.0183,-1.0183,0,-1.0121,-1.0124,-1.013,-1.0137,-1.0143,-1.0141,-1.0147,-1.0152,-1.0159,-1.0163,-1.0169,-1.0178,-1.0185,-1.0188,-1.0194,-1.0199,-1.0198,-1.0201,-1.02,-1.0201,-1.0186,-1.0184,-1.0201,-1.0201,-1.0201,-1.0201,-1.0201,-1.0201,-1.013,-1.0139,-1.0141,-1.0152,-1.0155,-1.0164,-1.0167,-1.0171,-1.0175,-1.0185,-1.0191,-1.0193,-1.0197,-1.0204,-1.0211,-1.0211,-1.0214,-1.0217,-1.0217,-1.0204,-1.0202,-1.02,-1.0198,-1.0218,-1.0218,-1.0231,-1.0231,-1.0232]},{"header":{"parameterUnit":"m.s-1","parameterCategory":1,"la1":30.2991,"la2":30.254,"lo1":-89.0895,"lo2":-89.0444,"dy":0.0017,"dx":0.0017,"nx":28,"ny":28,"refTime":"2024-08-28T09:00:00:Z","depth":0,"parameterNumber":3,"parameterNumberName":"V-component_of_WINDS"},"data":[0,0,0,0,0,0,0,0,0,0,0,0,0,0,0,0,0,0,0,0,0,0,0,0,0,0,0,0,0,0,0,0,0,0,0,0,0,0,0,0,0,0,0,0,0,0,0,0,0,0,0,0,0,0,0,0,0,0,4.3493,4.3493,0,4.3521,4.3521,4.3521,4.3455,4.3453,4.345,4.3448,4.3473,4.3476,4.3479,0,0,0,0,0,0,0,0,0,0,0,0,0,4.3379,4.3381,4.3493,4.3493,4.3494,4.352,4.3521,4.3521,4.3455,4.3452,4.345,4.3448,4.3473,4.3476,4.3479,0,0,0,0,0,0,0,0,0,0,0,0,0,4.3419,4.3382,4.3493,4.3464,4.3462,4.352,4.3521,4.3521,4.3456,4.3452,4.3449,4.3446,4.3472,4.3475,4.3479,4.3566,0,0,4.3491,4.3493,0,0,0,0,0,0,0,0,4.3417,4.3424,4.3468,4.3466,4.3464,4.3481,4.349,4.3536,4.3456,4.3458,4.3448,4.3445,4.3478,4.3481,4.3493,4.3567,4.3569,4.3492,4.3494,4.3496,4.3497,0,0,0,0,0,0,0,4.3414,4.3422,4.3504,4.3469,4.3466,4.3448,4.345,4.3498,4.3485,4.3457,4.3453,4.3457,4.3476,4.349,4.3493,4.3569,4.3491,4.3495,4.3497,4.3499,4.3714,4.3717,0,0,0,0,0,0,4.3416,4.342,4.3503,4.3504,4.3432,4.3453,4.3455,4.3478,4.3484,4.3482,4.346,4.3454,4.3485,4.3489,4.3494,4.3595,4.3496,4.3499,4.3501,4.371,4.3714,4.3718,0,0,0,0,0,0,4.3414,4.3424,4.3502,4.3461,4.347,4.3458,4.3485,4.3481,4.3494,4.3486,4.3483,4.3476,4.3482,4.3489,4.3549,4.3595,4.3501,4.3505,4.3706,4.3712,4.3716,4.3798,0,0,0,0,0,0,4.3411,4.3424,4.3458,4.3462,4.3472,4.3557,4.3488,4.3484,4.3501,4.3494,4.3501,4.3499,4.348,4.3543,4.3553,4.3598,4.3508,4.3702,4.3709,4.3715,4.3791,4.3805,4.3817,0,0,0,0,0,4.3407,4.3479,4.346,4.347,4.3515,4.356,4.3565,4.3544,4.3505,4.3538,4.3533,4.3499,4.3589,4.355,4.356,4.3608,4.3699,4.3707,4.3714,4.3785,4.3803,4.3817,0,0,0,0,0,0,4.3479,4.3479,4.3458,4.3534,4.3548,4.3549,4.359,4.3563,4.3587,4.3579,4.355,4.3552,4.3617,4.3618,4.3575,4.3691,4.3637,4.3647,4.3688,4.3704,4.3717,4.3714,4.3511,0,0,0,0,0,4.3504,4.3542,4.354,4.3607,4.3616,4.3602,4.3621,4.3603,4.3615,4.362,4.362,4.3632,4.3663,4.3684,4.3712,4.3792,4.3791,4.3829,4.3842,4.3853,4.3862,4.3902,4.3918,4.3743,4.3743,4.3743,0,0,4.3556,4.3561,4.3586,4.3622,4.363,4.3669,4.3607,4.3651,4.3679,4.3627,4.3683,4.3683,4.3695,4.3765,4.3796,4.3768,4.391,4.3863,4.3872,4.3874,4.3911,4.3928,4.3943,4.3748,4.3747,4.3746,0,0,4.3669,4.3678,4.3734,4.3744,4.3758,4.3748,4.3762,4.3767,4.3765,4.3822,4.3783,4.3815,4.387,4.3879,4.3891,4.4007,4.3975,4.4017,4.4085,4.4125,4.4139,4.4151,4.419,4.4205,4.4026,4.4026,4.4026,0,4.3731,4.3789,4.3766,4.3812,4.3828,4.3784,4.384,4.385,4.3872,4.3883,4.3853,4.3919,4.3924,4.3995,4.4023,4.4035,4.4048,4.4016,4.4139,4.4151,4.4162,4.4199,4.4214,4.4031,4.4031,4.403,4.403,0,4.3863,4.3904,4.3948,4.3971,4.3992,4.4043,4.4026,4.405,4.403,4.4023,4.408,4.4085,4.4112,4.4128,4.4109,4.4196,4.4178,4.4144,4.4088,4.4184,4.4218,4.4233,4.4038,4.4036,4.4035,4.4034,0,0,4.4023,4.4032,4.4048,4.4057,4.4069,4.4099,4.4148,4.4175,4.4195,4.4212,4.425,4.4297,4.4265,4.4279,4.4261,4.4296,4.4386,4.4257,4.4257,4.4279,4.4479,4.4504,4.4521,4.4365,4.4368,4.437,4.4477,0,4.4133,4.4217,4.4197,4.4279,4.4315,4.4273,4.4315,4.4326,4.4321,4.435,4.4343,4.4376,4.4333,4.434,4.4374,4.4368,4.4425,4.436,4.4399,4.4401,4.4396,4.4539,4.4565,4.4666,4.4491,4.4493,4.4495,0,4.4273,4.4296,4.4382,4.4386,4.44,4.4438,4.4461,4.449,4.4501,4.4495,4.451,4.4485,4.453,4.4476,4.4538,4.4494,4.4509,4.4508,4.4512,4.4513,4.4452,4.4542,4.4698,4.4713,4.4517,4.4515,4.4513,0,4.4379,4.443,4.4488,4.4497,4.4504,4.4532,4.4536,4.4544,4.4561,4.4581,4.4592,4.4617,4.463,4.465,4.4631,4.4594,4.4695,4.464,4.469,4.469,4.4711,4.471,4.487,4.4724,4.4724,4.4724,4.4724,0,4.4503,4.4557,4.4535,4.457,4.4628,4.4605,4.4662,4.4662,4.4669,4.4702,4.4668,4.4699,4.4674,4.4703,4.4689,4.4741,4.4748,4.4743,4.4738,4.4745,4.4745,4.4753,4.4744,4.4728,4.4727,4.4726,4.4725,0,4.463,4.4618,4.4677,4.4679,4.4681,4.4724,4.4725,4.4756,4.4749,4.4791,4.48,4.4787,4.482,4.4804,4.4837,4.4827,4.4894,4.4881,4.4891,4.4887,4.4937,4.4932,4.5106,4.5127,4.4969,4.4971,4.4972,0,4.4709,4.475,4.4756,4.4776,4.4783,4.4816,4.4833,4.4812,4.4831,4.4846,4.4876,4.4905,4.4927,4.4981,4.4974,4.4999,4.4985,4.5044,4.4988,4.4994,4.4984,4.4981,4.4984,4.5055,4.5057,4.5058,4.506,0,4.4851,4.4843,4.487,4.4895,4.4918,4.4936,4.4952,4.497,4.4948,4.4972,4.5004,4.5022,4.5056,4.5085,4.5107,4.5109,4.5081,4.5078,4.509,4.5097,4.51,4.5097,4.492,4.5073,4.5072,4.5071,4.507,4.507,4.4955,4.4989,4.4998,4.5029,4.5039,4.5054,4.5083,4.5079,4.5107,4.5133,4.5118,4.5156,4.5165,4.5191,4.5198,4.5226,4.5202,4.5221,4.5225,4.523,4.5236,4.5097,4.523,4.523,4.5229,4.5229,4.5229,0,4.5094,4.5098,4.5127,4.5149,4.5174,4.5146,4.5161,4.5182,4.5217,4.5228,4.525,4.5287,4.5315,4.5311,4.5336,4.5359,4.5347,4.5367,4.5364,4.5364,4.5257,4.5242,4.5376,4.5376,4.5376,4.5376,4.5376,4.5376,4.5169,4.5223,4.5215,4.5273,4.5276,4.5314,4.5325,4.5338,4.5346,4.5389,4.5412,4.541,4.5414,4.5439,4.5463,4.5461,4.5471,4.5495,4.5488,4.5387,4.5372,4.5358,4.5345,4.5498,4.5498,4.5593,4.5594,4.5595]}]]